Abilene Dyess, TX

7:41 AM CDT on September 18, 2019 (GMT -0500)
Dyess Air Force Base

Weather History for KDYS - August, 2019

Change the Weather History Date:

Monday, August 19, 2019

  Actual Average Record
Temperature  
Mean Temperature 90 °F -  
Max Temperature 102 °F 93 °F 102 °F (1999)
Min Temperature 78 °F 72 °F 62 °F (2015)
Cooling Degree Days 24    
Growing Degree Days 40 (Base 50)    
Moisture  
Dew Point 61 °F    
Average Humidity 39    
Maximum Humidity 65    
Minimum Humidity 23    
Precipitation  
Precipitation 0.00 in - - ()
Sea Level Pressure  
Sea Level Pressure 29.79 in    
Wind  
Wind Speed 12 mph (SSE)    
Max Wind Speed 16 mph    
Max Gust Speed 23 mph    
Visibility 10 miles    
Events      
Averages and records for this station are not official NWS values.
T = Trace of Precipitation, MM = Missing Value Source: NWS Daily Summary

Daily Weather History Graph

Daily Weather History Graph

Search for Another Location

Airport or City:

Astronomy

Aug. 19, 2019 Rise Set
Actual Time 7:05 AM CDT 8:19 PM CDT
Civil Twilight 6:40 AM CDT 8:45 PM CDT
Nautical Twilight 6:09 AM CDT 9:15 PM CDT
Astronomical Twilight 5:37 AM CDT 9:47 PM CDT
Moon 10:54 PM CDT (8/19) 10:37 AM CDT (8/19)
Length of Visible Light 14h 05m
Length of Day
13h 13m
Waning Gibbous, 85% of the Moon is Illuminated
Aug 19
Waning Gibbous
Aug 23
Last Quarter
Aug 30
New
Sep 5
First Quarter
Sep 13
Full

Hourly Weather History & Observations

Time (CDT) Temp. Heat Index Dew Point Humidity Pressure Visibility Wind Dir Wind Speed Gust Speed Precip Events Conditions
12:56 AM 85.3 °F 84.4 °F 57.4 °F 39% 29.74 in 10.0 mi SE 15.0 mph - N/A   Clear
1:56 AM 85.1 °F 84.8 °F 59.4 °F 42% 29.73 in 10.0 mi SSE 13.8 mph - N/A   Clear
2:56 AM 83.8 °F 84.0 °F 60.3 °F 45% 29.75 in 10.0 mi SSE 9.2 mph - N/A   Clear
3:56 AM 80.6 °F 81.5 °F 60.8 °F 51% 29.75 in 10.0 mi South 4.6 mph - N/A   Clear
4:56 AM 80.1 °F 81.5 °F 63.3 °F 56% 29.77 in 10.0 mi SSE 11.5 mph - N/A   Clear
5:56 AM 79.9 °F - 65.1 °F 61% 29.77 in 10.0 mi SSE 11.5 mph - N/A   Clear
6:56 AM 78.4 °F - 65.7 °F 65% 29.80 in 10.0 mi SE 12.7 mph - N/A   Clear
7:56 AM 79.2 °F - 65.5 °F 63% 29.82 in 10.0 mi SSE 13.8 mph - N/A   Partly Cloudy
8:56 AM 83.8 °F 86.5 °F 66.9 °F 57% 29.83 in 10.0 mi South 12.7 mph - N/A   Clear
9:56 AM 88.0 °F 89.0 °F 63.9 °F 44% 29.83 in 10.0 mi South 16.1 mph 23.0 mph N/A   Clear
10:56 AM 91.2 °F 92.5 °F 63.5 °F 40% 29.85 in 10.0 mi South 15.0 mph - N/A   Clear
11:56 AM 93.6 °F 93.8 °F 61.0 °F 34% 29.85 in 10.0 mi South 11.5 mph 19.6 mph N/A   Clear
12:56 PM 96.1 °F 96.0 °F 59.5 °F 30% 29.83 in 10.0 mi South 11.5 mph - N/A   Partly Cloudy
1:56 PM 97.7 °F 97.6 °F 59.9 °F 28% 29.82 in 10.0 mi SSW 9.2 mph - N/A   Partly Cloudy
2:56 PM 99.7 °F 100.1 °F 59.7 °F 27% 29.80 in 10.0 mi SSE 11.5 mph - N/A   Partly Cloudy
3:56 PM 100.8 °F 100.8 °F 58.5 °F 25% 29.78 in 10.0 mi SE 13.8 mph 18.4 mph N/A   Clear
4:56 PM 101.7 °F 101.1 °F 56.8 °F 23% 29.76 in 10.0 mi South 9.2 mph - N/A   Clear
5:56 PM 101.5 °F 100.8 °F 56.7 °F 23% 29.76 in 10.0 mi SE 9.2 mph - N/A   Clear
6:56 PM 100.2 °F 100.0 °F 57.9 °F 25% 29.75 in 10.0 mi ESE 5.8 mph - N/A   Clear
7:56 PM 97.2 °F 96.4 °F 57.6 °F 27% 29.77 in 10.0 mi SE 12.7 mph - N/A   Clear
8:56 PM 93.9 °F 93.2 °F 58.6 °F 31% 29.79 in 10.0 mi East 9.2 mph - N/A   Clear
9:56 PM 91.6 °F 91.0 °F 59.2 °F 34% 29.82 in 10.0 mi ESE 11.5 mph - N/A   Clear
10:56 PM 88.7 °F 88.0 °F 59.0 °F 37% 29.84 in 10.0 mi ESE 10.4 mph - N/A   Clear
11:56 PM 86.7 °F 86.3 °F 59.5 °F 40% 29.85 in 10.0 mi ESE 11.5 mph - N/A   Clear